Regional Weather Roundup
Issued by NWS Cleveland, OH

Home | Current Version | Previous Version | Text Only | Print | Product List | Glossary On
Versions: 1 2 3 4 5 6 7 8 9 10 11 12 13 14 15 16 17 18 19 20 21 22 23 24 25 26 27 28 29 30 31 32 33 34 35 36 37 38 39 40 41 42 43 44 45 46 47 48 49 50
000
ASUS41 KCLE 291912
RWRCLE
OHIO REGIONAL WEATHER ROUNDUP
NATIONAL WEATHER SERVICE WILMINGTON, OH
300 PM EDT SUN MAY 29 2016

NOTE: "FAIR" INDICATES FEW OR NO CLOUDS BELOW 12,000 FEET WITH NO
SIGNIFICANT WEATHER AND/OR OBSTRUCTIONS TO VISIBILITY.

OHZ001>008-015>018-024>027-034-035-043-044-292000-
   NORTHWEST OHIO

CITY           SKY/WX    TMP DP  RH WIND       PRES   REMARKS
DEFIANCE       FAIR      88  59  37 SW12G23   29.99F
FINDLAY        FAIR      84  63  49 S15       30.02F
TOLEDO EXPRESS FAIR      88  62  41 SW9       29.99F
TOLEDO EXEC    FAIR      85  63  47 S17G24    30.00F
LIMA           PTSUNNY   82  66  58 SW7       30.03F
$$

OHZ009>014-019>023-028>033-038-089-292000-
   NORTHEAST OHIO

CITY           SKY/WX    TMP DP  RH WIND       PRES   REMARKS
CLE-HOPKINS    CLOUDY    81  63  54 S13       30.07F
CLE-LAKEFRONT  FAIR      81  62  52 SW13      30.04S
CUY CO. ARPT   CLOUDY    81  64  57 SW9       30.07F
LORAIN-ELYRIA  FAIR      81  66  60 S13       30.05F
ASHTABULA      FAIR      79  67  66 S8        30.07F
AKRON-CANTON   CLOUDY    80  62  54 SW9       30.09F
WOOSTER        PTSUNNY   79  61  53 SW7       30.09F
MANSFIELD      FAIR      80  66  62 S13G18    30.08F
YOUNGSTOWN     CLOUDY    79  66  64 S6        30.09F
$$

OHZ042-051>053-060>062-070>072-077>081-292000-
  SOUTHWEST OHIO

CITY           SKY/WX    TMP DP  RH WIND       PRES   REMARKS
CINC-COVINGTON FAIR      85  67  54 S8G16     30.07F
CINC-LUNKEN    FAIR      84  68  58 S12       30.06F
HAMILTON       FAIR      85  65  51 SW8       30.06F
DAYTON         PTSUNNY   82  66  58 S8        30.07F
WRIGHT-PAT AFB NOT AVBL
DAYTON GENERAL FAIR      85  63  47 S12G21    30.06F
WILMINGTON     FAIR      83  65  54 S10       30.08F
$$

OHZ036-037-039>041-045>050-054>059-063>069-073>076-082>088-292000-
  CENTRAL AND SOUTHEAST OHIO

CITY           SKY/WX    TMP DP  RH WIND       PRES   REMARKS
COLUMBUS       PTSUNNY   80  65  59 S7        30.08F
OSU AIRPORT    FAIR      81  64  56 S15       30.08F
BOLTON FIELD   SUNNY     81  68  65 S12       30.08F
RICKENBACK AFB FAIR      80  64  57 S9        30.08F
NEWARK         FAIR      82  63  52 S9        30.08F
MARION         FAIR      82  66  58 S16       30.07F
LANCASTER      FAIR      80  64  58 SW7       30.10F
ZANESVILLE     FAIR      84  66  54 S8        30.09F
NEW PHILLY     FAIR      83  64  52 SW7       30.09F
$$




USA.gov is the U.S. government's official web portal to all federal, state and local government web resources and services.